OneWeb SL0130

operational
NORAD ID: 47272 Int'l Des: 2020-100 Owner: ONEWEB Country: UK Constellation: oneweb
LEOCIRCULARPOLARONEWEB_TYPE

关于 OneWeb SL0130

正在加载描述...

实时位置

正在加载3D地球...

即将过境

高度历史

Altitude vs Time

uPlot chart will show altitude changes over time

两行轨道根数

1 47272U 20100Q 26036.22856639 .00000299 00000-0 79484-3 0 9998
2 47272 87.8957 16.8655 0001859 87.9807 272.1535 13.12444197247397
Epoch: Feb 5, 2026 • Age: 7 hours

当前状态

高度 1241.4 km
速度 7.23 km/s
星下点 -70.47°S, 48.54°E
发射日期 Dec 18, 2020
运行时间 5.1 years
类型 internet

技术详情

分类 Payload
质量 148.00 kg
干质量 140.00 kg
总质量 148.00 kg
长度 1.30 m
直径 1.00 m
跨度 5.00 m
形状 Trapezoid+2 pan
制造商 ONEWUS
平台类型 ARROW
阶段状态 In Orbit
所有者/国家 ONEWEB/UK

大型星座

Loading constellations...